Location: Newark
(13.6797°N, 8.5297°E)
Time: 14:17:05
(UTC+00:00)

Altair - Pass Details

Date: 30 January 2020
Orbit: 1502 x 1682 km, 47.2° (Epoch: 25 February)

Event Time Altitude Azimuth Distance (km) Brightness Sun altitude
Rises 16:12:38 0° 297° (WNW) 4,875 10.7 15.6°
Reaches altitude 10° 16:16:29 10° 286° (WNW) 3,862 10.6 14.8°
Maximum altitude 16:24:08 26° 234° (SW) 2,743 10.6 13.0°
Drops below altitude 10° 16:31:38 10° 181° (S) 3,746 9.9 11.4°
Sets 16:35:22 0° 169° (SSE) 4,701 10.2 10.5°
